TimeEDT,TemperatureF,Dew PointF,Humidity,Sea Level PressureIn,VisibilityMPH,Wind Direction,Wind SpeedMPH,Gust SpeedMPH,PrecipitationIn,Events,Conditions,WindDirDegrees,DateUTC
12:00 AM,62.6,60.8,94,30.03,3.0,East,3.5,-,N/A,,Overcast,80,2012-10-03 04:00:00
12:23 AM,62.6,60.8,94,30.03,2.5,NNE,3.5,-,N/A,,Overcast,20,2012-10-03 04:23:00
12:30 AM,62.6,60.8,94,30.03,4.0,NE,3.5,-,N/A,,Overcast,40,2012-10-03 04:30:00
12:53 AM,61.0,60.1,97,30.02,4.0,NE,3.5,-,0.00,Rain,Light Rain,40,2012-10-03 04:53:00
1:24 AM,60.8,59.0,94,30.03,2.5,NNE,6.9,-,0.00,Rain,Light Rain,20,2012-10-03 05:24:00
1:45 AM,60.8,59.0,94,30.02,4.0,NE,5.8,-,0.00,Rain,Light Rain,40,2012-10-03 05:45:00
1:53 AM,61.0,59.0,93,30.02,4.0,NE,4.6,-,0.00,,Overcast,40,2012-10-03 05:53:00
2:53 AM,61.0,60.1,97,30.02,4.0,Calm,Calm,-,0.00,Rain,Light Rain,0,2012-10-03 06:53:00
3:11 AM,60.8,59.0,94,30.02,2.0,Calm,Calm,-,0.00,Rain,Light Rain,0,2012-10-03 07:11:00
3:30 AM,60.8,60.8,100,30.02,3.0,Calm,Calm,-,0.00,Rain,Light Rain,0,2012-10-03 07:30:00
3:38 AM,60.8,60.8,100,30.02,2.0,NE,3.5,-,0.00,Rain,Light Rain,50,2012-10-03 07:38:00
3:53 AM,61.0,60.1,97,30.01,2.0,NE,3.5,-,0.01,Rain,Rain,40,2012-10-03 07:53:00
4:33 AM,62.6,60.8,94,30.02,6.0,ENE,3.5,-,0.04,Rain,Light Rain,70,2012-10-03 08:33:00
4:53 AM,62.1,61.0,96,30.02,5.0,NE,3.5,-,0.05,Rain,Light Rain,40,2012-10-03 08:53:00
5:53 AM,62.1,61.0,96,30.03,4.0,Calm,Calm,-,0.00,,Overcast,0,2012-10-03 09:53:00
6:18 AM,62.6,60.8,94,30.04,2.5,East,3.5,-,N/A,,Overcast,80,2012-10-03 10:18:00
6:48 AM,62.6,62.6,100,30.04,4.0,Calm,Calm,-,0.00,,Overcast,0,2012-10-03 10:48:00
6:53 AM,62.1,61.0,96,30.04,5.0,Calm,Calm,-,0.00,,Overcast,0,2012-10-03 10:53:00
7:23 AM,62.6,60.8,94,30.06,2.5,Calm,Calm,-,0.00,Rain,Light Rain,0,2012-10-03 11:23:00
7:31 AM,62.6,60.8,94,30.06,3.0,NNE,3.5,-,0.00,,Overcast,20,2012-10-03 11:31:00
7:53 AM,62.1,61.0,96,30.05,4.0,North,3.5,-,0.00,,Overcast,10,2012-10-03 11:53:00
8:44 AM,62.6,62.6,100,30.07,0.5,North,3.5,-,N/A,Fog,Fog,10,2012-10-03 12:44:00
8:53 AM,63.0,62.1,97,30.07,0.2,North,4.6,-,N/A,Fog,Fog,10,2012-10-03 12:53:00
9:53 AM,63.0,62.1,97,30.07,0.2,North,4.6,-,N/A,Fog,Fog,10,2012-10-03 13:53:00
10:53 AM,63.0,63.0,100,30.08,0.2,NNW,3.5,-,N/A,Fog,Fog,340,2012-10-03 14:53:00
11:53 AM,64.0,64.0,100,30.08,1.2,North,3.5,-,N/A,,Overcast,360,2012-10-03 15:53:00
12:07 PM,64.4,64.4,100,30.08,3.0,Calm,Calm,-,N/A,,Overcast,0,2012-10-03 16:07:00
12:53 PM,64.9,63.0,93,30.07,2.0,NW,8.1,-,N/A,,Overcast,320,2012-10-03 16:53:00
1:31 PM,64.4,64.4,100,30.08,1.2,North,4.6,-,N/A,,Overcast,10,2012-10-03 17:31:00
1:53 PM,66.0,64.0,93,30.07,0.8,North,4.6,-,N/A,,Overcast,350,2012-10-03 17:53:00
2:53 PM,66.0,64.9,96,30.07,0.8,North,3.5,-,N/A,,Overcast,360,2012-10-03 18:53:00
3:14 PM,66.2,66.2,100,30.07,1.0,Variable,3.5,-,N/A,,Overcast,0,2012-10-03 19:14:00
4:03 PM,66.2,64.4,94,30.07,1.0,NNW,3.5,-,N/A,,Overcast,340,2012-10-03 20:03:00
4:53 PM,66.9,66.0,97,30.07,1.2,North,5.8,-,N/A,,Overcast,10,2012-10-03 20:53:00
5:23 PM,66.2,64.4,94,30.08,0.8,North,4.6,-,N/A,,Overcast,10,2012-10-03 21:23:00
5:53 PM,66.0,64.9,96,30.09,0.2,North,5.8,-,N/A,Fog,Fog,10,2012-10-03 21:53:00
6:53 PM,66.0,64.9,96,30.09,0.5,NNE,5.8,-,N/A,Fog,Fog,20,2012-10-03 22:53:00
7:53 PM,64.0,64.0,100,30.11,0.2,North,3.5,-,N/A,Fog,Fog,360,2012-10-03 23:53:00
9:53 PM,63.0,62.1,97,30.13,1.5,Variable,3.5,-,N/A,,Overcast,0,2012-10-04 01:53:00
10:12 PM,62.6,62.6,100,30.13,2.5,North,3.5,-,N/A,,Overcast,10,2012-10-04 02:12:00
10:31 PM,62.6,60.8,94,30.13,3.0,North,3.5,-,N/A,,Overcast,10,2012-10-04 02:31:00
10:43 PM,62.6,60.8,94,30.13,2.5,Calm,Calm,-,N/A,,Overcast,0,2012-10-04 02:43:00
10:53 PM,62.1,61.0,96,30.12,3.0,North,4.6,-,N/A,,Overcast,10,2012-10-04 02:53:00
11:04 PM,62.6,60.8,94,30.13,1.8,North,3.5,-,N/A,,Overcast,360,2012-10-04 03:04:00
11:38 PM,62.6,60.8,94,30.13,0.8,North,4.6,-,N/A,,Overcast,350,2012-10-04 03:38:00
11:53 PM,61.0,61.0,100,30.13,0.8,North,5.8,-,N/A,,Mist,350,2012-10-04 03:53:00